Vacaville, CA

2:01 PM PDT on August 29, 2016 (GMT -0700)
Nut Tree

Weather History for KVCB - August, 2012

Change the Weather History Date:

Thursday, August 9, 2012

  Actual Average Record
Temperature  
Mean Temperature 81 °F -  
Max Temperature 102 °F 97 °F 109 °F (1990)
Min Temperature 60 °F 56 °F 47 °F (1950)
Cooling Degree Days 16    
Growing Degree Days 31 (Base 50)    
Moisture  
Dew Point 49 °F    
Average Humidity 38    
Maximum Humidity 67    
Minimum Humidity 14    
Precipitation  
Precipitation 0.00 in - - ()
Sea Level Pressure  
Sea Level Pressure 29.85 in    
Wind  
Wind Speed 2 mph (South)    
Max Wind Speed 9 mph    
Max Gust Speed -    
Visibility 10 miles    
Events      
Averages and records for this station are not official NWS values.
T = Trace of Precipitation, MM = Missing Value Source: NWS Daily Summary

Daily Weather History Graph

Daily Weather History Graph

Search for Another Location

Airport or City:

Trip Planner

Search our weather history database for the weather conditions in past years. The results will help you decide how hot, cold, wet, or windy it might be!

Date:

Astronomy

Aug. 09, 2012 Rise Set
Actual Time 6:17 AM PDT 8:08 PM PDT
Civil Twilight 5:48 AM PDT 8:36 PM PDT
Nautical Twilight 5:14 AM PDT 9:11 PM PDT
Astronomical Twilight 4:36 AM PDT 9:48 PM PDT
Moon No Moon Rise 1:56 PM PDT (8/9)
Length of Visible Light 14h 48m
Length of Day
13h 50m
Waning Gibbous, 50% of the Moon is Illuminated
Aug 9
Waning Gibbous
Aug 17
New
Aug 24
First Quarter
Aug 31
Full
Sep 8
Last Quarter

Hourly Weather History & Observations

Time (PDT) Temp. Heat Index Dew Point Humidity Pressure Visibility Wind Dir Wind Speed Gust Speed Precip Events Conditions
12:53 AM 64.9 °F - 46.0 °F 50% 29.87 in 10.0 mi Calm Calm - N/A   Clear
1:53 AM 63.0 °F - 48.9 °F 60% 29.86 in 10.0 mi Calm Calm - N/A   Clear
2:53 AM 64.0 °F - 52.0 °F 65% 29.87 in 10.0 mi ENE 3.5 mph - N/A   Clear
3:53 AM 60.1 °F - 48.9 °F 67% 29.87 in 10.0 mi Calm Calm - N/A   Clear
4:53 AM 61.0 °F - 48.9 °F 64% 29.87 in 10.0 mi Calm Calm - N/A   Clear
5:53 AM 60.1 °F - 48.0 °F 64% 29.88 in 10.0 mi Calm Calm - N/A   Clear
6:53 AM 62.1 °F - 48.9 °F 62% 29.88 in 10.0 mi Calm Calm - N/A   Clear
7:53 AM 69.1 °F - 53.1 °F 57% 29.90 in 10.0 mi Calm Calm - N/A   Clear
8:53 AM 75.0 °F - 51.1 °F 43% 29.92 in 10.0 mi Calm Calm - N/A   Clear
9:53 AM 81.0 °F - 51.1 °F 35% 29.91 in 10.0 mi Calm Calm - N/A   Clear
10:53 AM 88.0 °F - 51.1 °F 28% 29.91 in 10.0 mi Calm Calm - N/A   Clear
11:53 AM 91.0 °F 88.7 °F 54.0 °F 28% 29.90 in 10.0 mi Calm Calm - N/A   Clear
12:53 PM 93.9 °F 92.6 °F 57.0 °F 29% 29.88 in 10.0 mi SE 6.9 mph - N/A   Clear
1:53 PM 98.1 °F 96.4 °F 55.9 °F 24% 29.87 in 10.0 mi ESE 5.8 mph - N/A   Clear
2:53 PM 99.0 °F - 50.0 °F 19% 29.85 in 10.0 mi South 6.9 mph - N/A   Clear
3:53 PM 102.0 °F - 44.1 °F 14% 29.82 in 10.0 mi SW 5.8 mph - N/A   Clear
4:53 PM 100.9 °F - 44.1 °F 14% 29.80 in 10.0 mi South 9.2 mph - N/A   Clear
5:53 PM 100.0 °F - 43.0 °F 14% 29.79 in 10.0 mi South 8.1 mph - N/A   Clear
6:53 PM 98.1 °F - 44.1 °F 16% 29.76 in 10.0 mi South 8.1 mph - N/A   Clear
7:53 PM 93.0 °F - 46.0 °F 20% 29.76 in 10.0 mi SW 3.5 mph - N/A   Clear
8:53 PM 84.9 °F - 43.0 °F 23% 29.77 in 10.0 mi SW 4.6 mph - N/A   Clear
9:53 PM 81.0 °F - 45.0 °F 28% 29.78 in 10.0 mi Calm Calm - N/A   Clear
10:53 PM 72.0 °F - 48.0 °F 43% 29.78 in 10.0 mi Calm Calm - N/A   Clear
11:53 PM 72.0 °F - 48.0 °F 43% 29.78 in 10.0 mi Calm Calm - N/A   Clear